H1 CPF 2 NER 2022 4 28 9 118 01 glonass135 H2 1600801 9135 41330 2022 4 28 0 0 0 2022 5 1 23 45 0 900 1 1 0 0 0 1 H9 10 0 59697 0.00000 0 17772708.321 -15800159.028 9188674.858 10 0 59697 900.00000 0 18459084.256 -16478847.078 6131486.352 10 0 59697 1800.00000 0 18788013.784 -16974038.080 2954969.277 10 0 59697 2700.00000 0 18782063.178 -17232668.527 -279063.565 10 0 59697 3600.00000 0 18475395.240 -17209011.247 -3507664.218 10 0 59697 4500.00000 0 17912149.229 -16866790.272 -6667984.397 10 0 59697 5400.00000 0 17144413.961 -16180910.311 -9698508.815 10 0 59697 6300.00000 0 16229880.877 -15138726.410 -12540261.853 10 0 59697 7200.00000 0 15229277.511 -13740799.033 -15137962.895 10 0 59697 8100.00000 0 14203691.019 -12001101.866 -17441107.040 10 0 59697 9000.00000 0 13211895.827 -9946672.860 -19404949.653 10 0 59697 9900.00000 0 12307798.921 -7616722.887 -20991375.348 10 0 59697 10800.00000 0 11538110.897 -5061239.090 -22169634.810 10 0 59697 11700.00000 0 10940340.853 -2339141.272 -22916935.635 10 0 59697 12600.00000 0 10541199.142 483931.765 -23218876.478 10 0 59697 13500.00000 0 10355474.430 3338113.819 -23069716.997 10 0 59697 14400.00000 0 10385431.318 6151977.511 -22472479.305 10 0 59697 15300.00000 0 10620752.778 8855264.704 -21438879.784 10 0 59697 16200.00000 0 11039028.757 11381568.492 -19989093.320 10 0 59697 17100.00000 0 11606769.465 13670856.339 -18151354.988 10 0 59697 18000.00000 0 12280899.998 15671730.654 -15961407.226 10 0 59697 18900.00000 0 13010672.863 17343334.183 -13461803.314 10 0 59697 19800.00000 0 13739917.662 18656822.391 -10701080.530 10 0 59697 20700.00000 0 14409533.078 19596342.883 -7732818.954 10 0 59697 21600.00000 0 14960116.253 20159482.509 -4614603.883 10 0 59697 22500.00000 0 15334618.892 20357164.818 -1406911.746 10 0 59697 23400.00000 0 15480918.296 20213003.362 1828059.030 10 0 59697 24300.00000 0 15354195.049 19762139.006 5027589.773 10 0 59697 25200.00000 0 14919017.171 19049610.783 8129652.839 10 0 59697 26100.00000 0 14151042.750 18128329.278 11074109.094 10 0 59697 27000.00000 0 13038269.025 17056737.910 13803868.664 10 0 59697 27900.00000 0 11581774.700 15896260.421 16265992.839 10 0 59697 28800.00000 0 9795923.435 14708641.656 18412716.092 10 0 59697 29700.00000 0 7708018.761 13553292.982 20202368.900 10 0 59697 30600.00000 0 5357423.333 12484753.365 21600183.995 10 0 59697 31500.00000 0 2794177.747 11550372.295 22578970.758 10 0 59697 32400.00000 0 77174.663 10788311.361 23119645.056 10 0 59697 33300.00000 0 -2728037.564 10225948.110 23211604.346 10 0 59697 34200.00000 0 -5551732.060 9878749.116 22852940.635 10 0 59697 35100.00000 0 -8322660.058 9749659.740 22050486.772 10 0 59697 36000.00000 0 -10970777.948 9829036.597 20819694.498 10 0 59697 36900.00000 0 -13429932.297 10095126.179 19184345.690 10 0 59697 37800.00000 0 -15640391.877 10515070.147 17176101.394 10 0 59697 38700.00000 0 -17551121.602 11046395.695 14833896.242 10 0 59697 39600.00000 0 -19121703.501 11638928.682 12203189.088 10 0 59697 40500.00000 0 -20323824.386 12237049.137 9335083.589 10 0 59697 41400.00000 0 -21142267.682 12782193.841 6285335.331 10 0 59697 42300.00000 0 -21575367.590 13215499.781 3113264.764 10 0 59697 43200.00000 0 -21634906.464 13480475.848 -119402.611 10 0 59697 44100.00000 0 -21345459.883 13525588.594 -3349745.604 10 0 59697 45000.00000 0 -20743217.442 13306651.218 -6514881.612 10 0 59697 45900.00000 0 -19874329.786 12788913.227 -9553200.692 10 0 59697 46800.00000 0 -18792852.579 11948760.911 -12405574.177 10 0 59697 47700.00000 0 -17558375.365 10774955.452 -15016513.165 10 0 59697 48600.00000 0 -16233436.540 9269355.309 -17335253.468 10 0 59697 49500.00000 0 -14880834.519 7447091.512 -19316745.397 10 0 59697 50400.00000 0 -13560949.259 5336187.934 -20922528.876 10 0 59697 51300.00000 0 -12329187.405 2976642.040 -22121477.117 10 0 59697 52200.00000 0 -11233658.593 419004.304 -22890394.907 10 0 59697 53100.00000 0 -10313180.232 -2277484.438 -23214460.645 10 0 59697 54000.00000 0 -9595693.829 -5047120.227 -23087504.455 10 0 59697 54900.00000 0 -9097158.193 -7820235.362 -22512117.916 10 0 59697 55800.00000 0 -8820964.760 -10525866.269 -21499594.146 10 0 59697 56700.00000 0 -8757898.102 -13094479.606 -20069700.128 10 0 59697 57600.00000 0 -8886641.962 -15460644.116 -18250286.172 10 0 59697 58500.00000 0 -9174808.323 -17565538.065 -16076740.446 10 0 59697 59400.00000 0 -9580445.240 -19359189.162 -13591299.214 10 0 59697 60300.00000 0 -10053959.229 -20802354.957 -10842226.087 10 0 59697 61200.00000 0 -10540370.817 -21867966.555 -7882876.075 10 0 59697 62100.00000 0 -10981807.906 -22542076.741 -4770662.357 10 0 59697 63000.00000 0 -11320131.753 -22824274.068 -1565945.512 10 0 59697 63900.00000 0 -11499584.829 -22727546.675 1669133.371 10 0 59697 64800.00000 0 -11469348.861 -22277602.453 4871853.338 10 0 59697 65700.00000 0 -11185905.185 -21511674.803 7980124.907 10 0 59697 66600.00000 0 -10615097.727 -20476864.555 10933688.750 10 0 59697 67500.00000 0 -9733811.406 -19228087.912 13675278.773 10 0 59697 68400.00000 0 -8531194.738 -17825716.527 16151727.425 10 0 59697 69300.00000 0 -7009374.427 -16333008.558 18314992.115 10 0 59697 70200.00000 0 -5183630.853 -14813438.070 20123083.357 10 0 59697 71100.00000 0 -3082025.614 -13328034.200 21540877.152 10 0 59697 72000.00000 0 -744495.129 -11932841.051 22540796.215 10 0 59697 72900.00000 0 1778553.739 -10676604.124 23103347.196 10 0 59697 73800.00000 0 4428089.440 -9598779.656 23217503.635 10 0 59697 74700.00000 0 7138667.835 -8727949.912 22880927.040 10 0 59697 75600.00000 0 9840920.416 -8080710.607 22100021.461 10 0 59697 76500.00000 0 12464216.707 -7661077.110 20889819.822 10 0 59697 77400.00000 0 14939391.204 -7460434.546 19273703.295 10 0 59697 78300.00000 0 17201422.257 -7458034.212 17282958.153 10 0 59697 79200.00000 0 19191951.716 -7622015.777 14956177.566 10 0 59697 80100.00000 0 20861540.238 -7910912.579 12338518.999 10 0 59697 81000.00000 0 22171563.867 -8275576.672 9480830.813 10 0 59697 81900.00000 0 23095672.106 -8661442.248 6438664.527 10 0 59697 82800.00000 0 23620745.869 -9011031.373 3271191.908 10 0 59697 83700.00000 0 23747314.738 -9266595.223 40048.198 10 0 59697 84600.00000 0 23489415.814 -9372777.960 -3191875.367 10 0 59697 85500.00000 0 22873900.164 -9279189.083 -6361665.185 10 0 59698 0.00000 0 21939216.629 -8942773.900 -9407619.688 10 0 59698 900.00000 0 20733724.382 -8329880.038 -12270460.912 10 0 59698 1800.00000 0 19313607.646 -7417931.647 -14894494.374 10 0 59698 2700.00000 0 17740479.824 -6196638.731 -17228699.336 10 0 59698 3600.00000 0 16078780.157 -4668689.903 -19227723.506 10 0 59698 4500.00000 0 14393072.935 -2849898.506 -20852764.254 10 0 59698 5400.00000 0 12745363.459 -768795.390 -22072319.129 10 0 59698 6300.00000 0 11192543.663 1534314.997 -22862791.585 10 0 59698 7200.00000 0 9784074.388 4008795.897 -23208940.880 10 0 59698 8100.00000 0 8560000.799 6595556.974 -23104168.343 10 0 59698 9000.00000 0 7549382.991 9229292.416 -22550635.380 10 0 59698 9900.00000 0 6769206.184 11840985.443 -21559211.811 10 0 59698 10800.00000 0 6223814.555 14360575.532 -20149256.287 10 0 59698 11700.00000 0 5904890.753 16719678.033 -18348233.538 10 0 59698 12600.00000 0 5791980.379 18854243.758 -16191176.239 10 0 59698 13500.00000 0 5853537.936 20707048.801 -13720002.017 10 0 59698 14400.00000 0 6048449.093 22229911.907 -10982698.789 10 0 59698 15300.00000 0 6327964.285 23385547.960 -8032394.079 10 0 59698 16200.00000 0 6637961.567 24148981.309 -4926326.164 10 0 59698 17100.00000 0 6921442.914 24508460.898 -1724736.698 10 0 59698 18000.00000 0 7121158.495 24465839.801 1510293.879 10 0 59698 18900.00000 0 7182248.071 24036404.061 4716045.767 10 0 59698 19800.00000 0 7054787.989 23248158.607 7830371.097 10 0 59698 20700.00000 0 6696136.251 22140600.578 10792893.713 10 0 59698 21600.00000 0 6072976.516 20763031.660 13546174.500 10 0 59698 22500.00000 0 5162974.516 19172480.142 16036820.030 10 0 59698 23400.00000 0 3955976.538 17431319.534 18216513.338 10 0 59698 24300.00000 0 2454698.620 15604683.042 20042947.369 10 0 59698 25200.00000 0 674876.287 13757781.527 21480643.454 10 0 59698 26100.00000 0 -1355132.980 11953236.501 22501639.335 10 0 59698 27000.00000 0 -3595279.686 10248538.945 23086033.772 10 0 59698 27900.00000 0 -5995247.835 8693739.460 23222377.268 10 0 59698 28800.00000 0 -8496318.461 7329465.733 22907901.248 10 0 59698 29700.00000 0 -11033595.445 6185349.739 22148580.862 10 0 59698 30600.00000 0 -13538502.679 5278930.140 20959029.556 10 0 59698 31500.00000 0 -15941449.861 4615075.763 19362226.572 10 0 59698 32400.00000 0 -18174556.941 4185954.298 17389081.625 10 0 59698 33300.00000 0 -20174324.204 3971547.623 15077844.121 10 0 59698 34200.00000 0 -21884136.635 3940692.177 12473367.383 10 0 59698 35100.00000 0 -23256497.709 4052600.560 9626241.371 10 0 59698 36000.00000 0 -24254898.615 4258799.974 6591810.196 10 0 59698 36900.00000 0 -24855243.851 4505405.170 3429093.452 10 0 59698 37800.00000 0 -25046772.703 4735629.048 199632.605 10 0 59698 38700.00000 0 -24832437.336 4892423.554 -3033714.550 10 0 59698 39600.00000 0 -24228721.275 4921137.777 -6208006.798 10 0 59698 40500.00000 0 -23264905.937 4772079.150 -9261454.743 10 0 59698 41400.00000 0 -21981816.435 4402867.772 -12134633.077 10 0 59698 42300.00000 0 -20430100.147 3780482.719 -14771645.115 10 0 59698 43200.00000 0 -18668111.344 2882912.490 -17121216.051 10 0 59698 44100.00000 0 -16759491.781 1700338.729 -19137693.070 10 0 59698 45000.00000 0 -14770549.850 235802.470 -20781932.594 10 0 59698 45900.00000 0 -12767548.950 -1494675.799 -22022057.584 10 0 59698 46800.00000 0 -10814019.102 -3462527.779 -22834070.680 10 0 59698 47700.00000 0 -8968204.394 -5627602.873 -23202311.973 10 0 59698 48600.00000 0 -7280752.529 -7939627.401 -23119753.460 10 0 59698 49500.00000 0 -5792742.101 -10340096.849 -22588125.369 10 0 59698 50400.00000 0 -4534128.802 -12764522.367 -21617872.821 10 0 59698 51300.00000 0 -3522673.839 -15144938.307 -20227944.394 10 0 59698 52200.00000 0 -2763397.556 -17412566.826 -18445417.224 10 0 59698 53100.00000 0 -2248579.325 -19500529.120 -16304966.270 10 0 59698 54000.00000 0 -1958301.886 -21346491.067 -13848188.171 10 0 59698 54900.00000 0 -1861515.713 -22895133.813 -11122792.706 10 0 59698 55800.00000 0 -1917577.350 -24100347.015 -8181677.465 10 0 59698 56700.00000 0 -2078195.958 -24927054.033 -5081903.392 10 0 59698 57600.00000 0 -2289705.323 -25352593.573 -1883590.828 10 0 59698 58500.00000 0 -2495565.061 -25367600.677 1351242.744 10 0 59698 59400.00000 0 -2638985.229 -24976350.771 4559880.923 10 0 59698 60300.00000 0 -2665563.402 -24196552.800 7680119.637 10 0 59698 61200.00000 0 -2525822.846 -23058600.368 10651468.024 10 0 59698 62100.00000 0 -2177544.559 -21604312.324 13416315.990 10 0 59698 63000.00000 0 -1587794.586 -19885215.405 15921046.170 10 0 59698 63900.00000 0 -734560.770 -17960440.493 18117069.022 10 0 59698 64800.00000 0 392070.627 -15894319.996 19961761.511 10 0 59698 65700.00000 0 1789248.920 -13753786.071 21419291.661 10 0 59698 66600.00000 0 3441232.816 -11605677.635 22461313.351 10 0 59698 67500.00000 0 5319810.964 -9514067.723 23067518.263 10 0 59698 68400.00000 0 7385253.477 -7537721.849 23226034.412 10 0 59698 69300.00000 0 9587756.569 -5727792.661 22933663.411 10 0 59698 70200.00000 0 11869321.954 -4125846.415 22195951.534 10 0 59698 71100.00000 0 14165994.458 -2762303.083 21027092.547 10 0 59698 72000.00000 0 16410365.980 -1655355.001 19449663.327 10 0 59698 72900.00000 0 18534242.559 -810409.000 17494196.371 10 0 59698 73800.00000 0 20471363.986 -220075.287 15198596.408 10 0 59698 74700.00000 0 22160062.535 135296.534 12607411.424 10 0 59698 75600.00000 0 23545749.480 286556.999 9770971.470 10 0 59698 76500.00000 0 24583124.723 274216.875 6744411.394 10 0 59698 77400.00000 0 25238016.043 146493.192 3586596.423 10 0 59698 78300.00000 0 25488769.868 -42975.395 358971.709 10 0 59698 79200.00000 0 25327134.263 -237646.290 -2875641.181 10 0 59698 80100.00000 0 24758596.255 -380715.826 -6054276.403 10 0 59698 81000.00000 0 23802158.979 -417773.937 -9115059.495 10 0 59698 81900.00000 0 22489567.885 -299356.695 -11998421.358 10 0 59698 82800.00000 0 20864018.882 16712.881 -14648265.688 10 0 59698 83700.00000 0 18978403.307 563296.114 -17013066.278 10 0 59698 84600.00000 0 16893164.155 1362309.015 -19046872.229 10 0 59698 85500.00000 0 14673854.381 2423561.339 -20710201.209 10 0 59699 0.00000 0 12388500.504 3744113.834 -21970803.442 10 0 59699 900.00000 0 10104881.062 5308181.957 -22804282.675 10 0 59699 1800.00000 0 7887836.971 7087588.472 -23194561.126 10 0 59699 2700.00000 0 5796721.692 9042748.558 -23134182.566 10 0 59699 3600.00000 0 3883099.921 11124144.579 -22624446.829 10 0 59699 4500.00000 0 2188788.459 13274229.675 -21675374.731 10 0 59699 5400.00000 0 744319.640 15429680.827 -20305504.764 10 0 59699 6300.00000 0 -432110.399 17523907.710 -18541526.034 10 0 59699 7200.00000 0 -1335166.554 19489713.054 -16417754.914 10 0 59699 8100.00000 0 -1972352.745 21261994.072 -13975465.736 10 0 59699 9000.00000 0 -2363445.891 22780372.820 -11262088.404 10 0 59699 9900.00000 0 -2539411.185 23991646.241 -8330288.407 10 0 59699 10800.00000 0 -2540845.694 24851954.159 -5236946.830 10 0 59699 11700.00000 0 -2416016.825 25328575.157 -2042059.840 10 0 59699 12600.00000 0 -2218579.021 25401275.669 1192421.158 10 0 59699 13500.00000 0 -2005065.504 25063156.204 4403786.468 10 0 59699 14400.00000 0 -1832261.134 24320959.514 7529779.208 10 0 59699 15300.00000 0 -1754567.408 23194827.885 10509797.202 10 0 59699 16200.00000 0 -1821470.868 21717519.632 13286062.691 10 0 59699 17100.00000 0 -2075221.840 19933117.290 15804737.535 10 0 59699 18000.00000 0 -2548821.551 17895281.117 18016962.571 10 0 59699 18900.00000 0 -3264402.830 15665120.246 19879801.503 10 0 59699 19800.00000 0 -4232073.241 13308769.563 21357071.479 10 0 59699 20700.00000 0 -5449270.174 10894772.575 22420044.617 10 0 59699 21600.00000 0 -6900656.280 8491378.354 23048007.267 10 0 59699 22500.00000 0 -8558561.209 6163864.192 23228666.277 10 0 59699 23400.00000 0 -10383952.886 3971994.616 22958394.303 10 0 59699 24300.00000 0 -12327899.545 1967721.734 22242309.079 10 0 59699 25200.00000 0 -14333463.283 193222.048 21094184.459 10 0 59699 26100.00000 0 -16337947.545 -1320648.885 19536194.128 10 0 59699 27000.00000 0 -18275405.994 -2555419.803 17598491.949 10 0 59699 27900.00000 0 -20079308.793 -3505540.962 15318635.980 10 0 59699 28800.00000 0 -21685255.124 -4178372.836 12740866.362 10 0 59699 29700.00000 0 -23033618.352 -4593627.074 9915250.288 10 0 59699 30600.00000 0 -24072012.443 -4782283.535 6896710.040 10 0 59699 31500.00000 0 -24757475.270 -4785029.493 3743952.934 10 0 59699 32400.00000 0 -25058276.039 -4650287.638 518324.131 10 0 59699 33300.00000 0 -24955269.748 -4431917.195 -2717394.781 10 0 59699 34200.00000 0 -24442740.614 -4186686.582 -5900217.039 10 0 59699 35100.00000 0 -23528698.210 -3971626.043 -8968186.762 10 0 59699 36000.00000 0 -22234613.333 -3841373.826 -11861594.550 10 0 59699 36900.00000 0 -20594604.577 -3845629.747 -14524147.746 10 0 59699 37800.00000 0 -18654110.000 -4026825.297 -16904071.700 10 0 59699 38700.00000 0 -16468100.076 -4418109.972 -18955119.975 10 0 59699 39600.00000 0 -14098907.528 -5041739.795 -20637473.515 10 0 59699 40500.00000 0 -11613765.495 -5907936.633 -21918511.436 10 0 59699 41400.00000 0 -9082157.428 -7014266.763 -22773438.931 10 0 59699 42300.00000 0 -6573089.671 -8345564.962 -23185760.728 10 0 59699 43200.00000 0 -4152400.291 -9874407.351 -23147591.878 10 0 59699 44100.00000 0 -1880215.753 -11562113.189 -22659800.733 10 0 59699 45000.00000 0 191339.546 -13360233.556 -21731982.243 10 0 59699 45900.00000 0 2020086.881 -15212464.758 -20382262.854 10 0 59699 46800.00000 0 3575310.670 -17056906.551 -18636941.360 10 0 59699 47700.00000 0 4838788.384 -18828571.041 -16529973.034 10 0 59699 48600.00000 0 5805291.935 -20462037.753 -14102307.224 10 0 59699 49500.00000 0 6482541.592 -21894144.299 -11401091.172 10 0 59699 50400.00000 0 6890616.143 -23066600.576 -8478755.439 10 0 59699 51300.00000 0 7060845.706 -23928417.573 -5391998.419 10 0 59699 52200.00000 0 7034235.116 -24438049.557 -2200689.318 10 0 59699 53100.00000 0 6859485.154 -24565160.254 1033289.244 10 0 59699 54000.00000 0 6590695.729 -24291939.215 4247236.869 10 0 59699 54900.00000 0 6284848.298 -23613913.349 7378846.312 10 0 59699 55800.00000 0 5999173.954 -22540219.499 10367406.356 10 0 59699 56700.00000 0 5788518.276 -21093326.438 13154973.656 10 0 59699 57600.00000 0 5702814.150 -19308217.434 15687491.132 10 0 59699 58500.00000 0 5784769.116 -17231066.990 17915831.582 10 0 59699 59400.00000 0 6067864.858 -14917466.245 19796746.729 10 0 59699 60300.00000 0 6574753.418 -12430270.116 21293703.807 10 0 59699 61200.00000 0 7316118.132 -9837154.942 22377593.816 10 0 59699 62100.00000 0 8290048.082 -7207987.213 23027298.090 10 0 59699 63000.00000 0 9481953.497 -4612111.719 23230102.329 10 0 59699 63900.00000 0 10865027.064 -2115670.953 22981949.985 10 0 59699 64800.00000 0 12401233.467 220933.750 22287529.769 10 0 59699 65700.00000 0 14042787.382 2345334.566 21160194.949 10 0 59699 66600.00000 0 15734059.626 4215148.115 19621715.187 10 0 59699 67500.00000 0 17413833.048 5799504.217 17701864.724 10 0 59699 68400.00000 0 19017814.717 7080088.972 15437853.812 10 0 59699 69300.00000 0 20481299.686 8051658.750 12873613.446 10 0 59699 70200.00000 0 21741874.744 8722003.825 10058946.456 10 0 59699 71100.00000 0 22742048.289 9111363.488 7048560.853 10 0 59699 72000.00000 0 23431694.993 9251317.646 3901004.092 10 0 59699 72900.00000 0 23770211.396 9183202.300 677519.166 10 0 59699 73800.00000 0 23728290.418 8956116.687 -2559154.681 10 0 59699 74700.00000 0 23289238.830 8624607.407 -5746012.277 10 0 59699 75600.00000 0 22449781.063 8246128.849 -8821018.876 10 0 59699 76500.00000 0 21220314.599 7878388.824 -11724327.306 10 0 59699 77400.00000 0 19624605.693 7576693.217 -14399450.988 10 0 59699 78300.00000 0 17698937.945 7391403.366 -16794369.114 10 0 59699 79200.00000 0 15490749.552 7365614.863 -18862541.818 10 0 59699 80100.00000 0 13056816.707 7533156.746 -20563815.262 10 0 59699 81000.00000 0 10461059.615 7916996.118 -21865199.128 10 0 59699 81900.00000 0 7772063.147 8528115.757 -22741501.875 10 0 59699 82800.00000 0 5060415.934 9364911.975 -23175812.029 10 0 59699 83700.00000 0 2395978.716 10413137.904 -23159817.111 10 0 59699 84600.00000 0 -154804.722 11646394.364 -22693954.909 10 0 59699 85500.00000 0 -2531442.832 13027147.391 -21787395.082 10 0 59700 0.00000 0 -4681673.347 14508229.479 -20457852.355 10 0 59700 900.00000 0 -6563389.982 16034762.312 -18731234.742 10 0 59700 1800.00000 0 -8146137.389 17546418.469 -16641135.862 10 0 59700 2700.00000 0 -9412117.921 18979930.191 -14228178.995 10 0 59700 3600.00000 0 -10356667.177 20271738.416 -11539227.254 10 0 59700 4500.00000 0 -10988181.533 21360672.191 -8626474.436 10 0 59700 5400.00000 0 -11327502.274 22190546.362 -5546434.071 10 0 59700 6300.00000 0 -11406783.696 22712568.974 -2358845.961 10 0 59700 7200.00000 0 -11267893.910 22887457.599 874478.747 10 0 59700 8100.00000 0 -10960416.600 22687175.988 4090851.827 10 0 59700 9000.00000 0 -10539338.468 22096218.135 7227918.685 10 0 59700 9900.00000 0 -10062520.202 21112385.740 10224862.176 10 0 59700 10800.00000 0 -9588057.693 19747026.094 13023576.495 10 0 59700 11700.00000 0 -9171644.767 18024719.822 15569788.734 10 0 59700 12600.00000 0 -8864048.471 15982430.814 17814106.660 10 0 59700 13500.00000 0 -8708803.244 13668152.875 19712972.888 10 0 59700 14400.00000 0 -8740221.070 11139108.457 21229507.401 10 0 59700 15300.00000 0 -8981801.555 8459573.347 22334222.482 10 0 59700 16200.00000 0 -9445109.228 5698416.588 23005596.529 10 0 59700 17100.00000 0 -10129165.965 2926456.599 23230495.795 10 0 59700 18000.00000 0 -11020385.058 213742.252 23004435.797 10 0 59700 18900.00000 0 -12093050.942 -2373129.272 22331676.997 10 0 59700 19800.00000 0 -13310325.856 -4773547.352 21225152.318 10 0 59700 20700.00000 0 -14625742.630 -6935170.758 19706227.073 10 0 59700 21600.00000 0 -15985122.325 -8815864.024 17804294.978 10 0 59700 22500.00000 0 -17328837.319 -10385207.038 15556217.004 10 0 59700 23400.00000 0 -18594325.538 -11625514.938 13005613.002 10 0 59700 24300.00000 0 -19718750.487 -12532325.943 10202018.962 10 0 59700 25200.00000 0 -20641695.007 -13114336.793 7199925.734 10 0 59700 26100.00000 0 -21307774.740 -13392788.863 4057717.704 10 0 59700 27000.00000 0 -21669060.204 -13400331.280 836532.234 10 0 59700 27900.00000 0 -21687204.124 -13179409.721 -2400937.404 10 0 59700 28800.00000 0 -21335182.932 -12780249.890 -5591671.367 10 0 59700 29700.00000 0 -20598577.665 -12258522.105 -8673559.827 10 0 59700 30600.00000 0 -19476339.061 -11672787.107 -11586621.595 10 0 59700 31500.00000 0 -17981003.730 -11081832.528 -14274179.809 10 0 59700 32400.00000 0 -16138351.674 -10542014.032 -16683970.914 10 0 59700 33300.00000 0 -13986519.234 -10104714.658 -18769164.698 10 0 59700 34200.00000 0 -11574604.685 -9814030.623 -20489275.155 10 0 59700 35100.00000 0 -8960824.999 -9704781.800 -21810944.591 10 0 59700 36000.00000 0 -6210301.016 -9800930.973 -22708586.132 10 0 59700 36900.00000 0 -3392563.678 -10114478.359 -23164872.812 10 0 59700 37800.00000 0 -578885.189 -10644877.540 -23171064.640 10 0 59700 38700.00000 0 2160454.135 -11378996.858 -22727168.228 10 0 59700 39600.00000 0 4758850.163 -12291627.319 -21841926.761 10 0 59700 40500.00000 0 7155899.800 -13346515.130 -20532641.319 10 0 59700 41400.00000 0 9299662.715 -14497875.130 -18824827.557 10 0 59700 42300.00000 0 11148567.300 -15692321.307 -16751714.845 10 0 59700 43200.00000 0 12672883.322 -16871133.285 -14353597.728 10 0 59700 44100.00000 0 13855701.727 -17972763.729 -11677052.270 10 0 59700 45000.00000 0 14693382.455 -18935481.529 -8774032.398 10 0 59700 45900.00000 0 15195453.376 -19700040.028 -5700863.527 10 0 59700 46800.00000 0 15383966.131 -20212258.436 -2517152.720 10 0 59700 47700.00000 0 15292337.234 -20425408.167 715363.693 10 0 59700 48600.00000 0 14963724.194 -20302303.930 3934012.918 10 0 59700 49500.00000 0 14449005.703 -19817011.655 7076396.108 10 0 59700 50400.00000 0 13804451.382 -18956101.314 10081593.026 10 0 59700 51300.00000 0 13089179.416 -17719391.605 12891337.928 10 0 59700 52200.00000 0 12362509.169 -16120154.604 15451144.221 10 0 59700 53100.00000 0 11681320.114 -14184770.943 17711356.371 10 0 59700 54000.00000 0 11097528.066 -11951848.833 19628109.170 10 0 59700 54900.00000 0 10655784.708 -9470842.410 21164176.211 10 0 59700 55800.00000 0 10391497.059 -6800225.664 22289691.484 10 0 59700 56700.00000 0 10329250.207 -4005296.489 22982730.474 10 0 59700 57600.00000 0 10481699.833 -1155700.651 23229739.645 10 0 59700 58500.00000 0 10848981.610 1677222.751 23025805.903 10 0 59700 59400.00000 0 11418663.065 4423165.403 22374760.519 10 0 59700 60300.00000 0 12166240.897 7015531.442 21289114.910 10 0 59700 61200.00000 0 13056164.025 9393965.996 19789828.704 10 0 59700 62100.00000 0 14043340.496 11506626.119 17905913.619 10 0 59700 63000.00000 0 15075065.925 13312099.916 15673879.767 10 0 59700 63900.00000 0 16093293.121 14780893.970 13137034.148 10 0 59700 64800.00000 0 17037147.736 15896427.021 10344644.113 10 0 59700 65700.00000 0 17845583.963 16655488.366 7350981.421 10 0 59700 66600.00000 0 18460067.817 17068141.849 4214265.332 10 0 59700 67500.00000 0 18827173.914 17157079.779 995525.412 10 0 59700 68400.00000 0 18900984.932 16956454.557 -2242593.302 10 0 59700 69300.00000 0 18645191.058 16510237.983 -5437058.588 10 0 59700 70200.00000 0 18034799.300 15870178.613 -8525687.806 10 0 59700 71100.00000 0 17057379.129 15093444.624 -11448367.935 10 0 59700 72000.00000 0 15713790.747 14240053.151 -14148233.886 10 0 59700 72900.00000 0 14018364.346 13370196.024 -16572781.260 10 0 59700 73800.00000 0 11998522.145 12541576.012 -18674891.236 10 0 59700 74700.00000 0 9693858.768 11806866.990 -20413747.219 10 0 59700 75600.00000 0 7154718.329 11211405.692 -21755625.569 10 0 59700 76500.00000 0 4440327.718 10791212.562 -22674545.380 10 0 59700 77400.00000 0 1616564.123 10571424.847 -23152765.341 10 0 59700 78300.00000 0 -1246550.227 10565207.330 -23181118.910 10 0 59700 79200.00000 0 -4077522.057 10773185.779 -22759182.233 10 0 59700 80100.00000 0 -6806118.980 11183426.000 -21895272.429 10 0 59700 81000.00000 0 -9366046.570 11771958.480 -20606277.100 10 0 59700 81900.00000 0 -11697460.423 12503825.763 -18917318.951 10 0 59700 82800.00000 0 -13749209.959 13334607.883 -16861262.454 10 0 59700 83700.00000 0 -15480722.183 14212361.300 -14478072.304 10 0 59700 84600.00000 0 -16863448.602 15079889.600 -11814036.090 10 0 59700 85500.00000 0 -17881816.548 15877250.383 -8920866.168 99